Weather Roundup
Issued by NWS Springfield, MO

Home | Current Version | Previous Version | Text Only | Print | Product List | Glossary On
Versions: 1 2 3 4 5 6 7 8 9 10 11 12 13 14 15 16 17 18 19 20 21 22 23 24 25 26 27 28 29 30 31 32 33 34 35 36 37 38 39 40 41 42 43 44 45 46 47 48 49 50
000
NZUS99 KSGF 241257
HRRSGF

HOURLY WEATHER
NATIONAL WEATHER SERVICE SPRINGFIELD MO
800 AM CDT SUN JUL 24 2016

......SGF CWA......

CITY           SKY/WX    TMP DP  RH WIND       PRES   REMARKS
SPRINGFIELD    SUNNY     81  72  74 S6        29.98R
JOPLIN         CLOUDY    81  71  71 SW10      29.97R
WEST PLAINS    PTSUNNY   77  71  82 VRB3      30.02R
ROLLA          SUNNY     80  72  76 SW8       29.96R
BRANSON        MOSUNNY   79  72  78 CALM      30.01R

......SURROUNDING SGF CWA......

CITY           SKY/WX    TMP DP  RH WIND       PRES   REMARKS
CHANUTE        CLOUDY    79  72  79 S5        29.95R
PARSONS        CLOUDY    78  73  84 CALM      29.97R
COFFEYVILLE    CLOUDY    81  73  76 SW6       29.95R
EMPORIA        PTSUNNY   83  71  67 S8        29.93F
HARRISON AR    SUNNY     76  72  87 CALM      30.01R

......KANSAS AND MISSOURI......

CITY           SKY/WX    TMP DP  RH WIND       PRES   REMARKS
KANSAS CTY INT CLOUDY    80  72  76 SW10      29.91R
SEDALIA        CLOUDY    82  75  79 SW8       29.95R
ST JOSEPH      MOSUNNY   80  73  79 SW5       29.90R
ST LOUIS       NOT AVBL
WICHITA        CLOUDY    79  69  71 S7        29.93S
TOPEKA           N/A     84  70  62 W6        29.90R
OLATHE         CLOUDY    79  71  76 SW7       29.93S

......TENNESSEE......

CITY           SKY/WX    TMP DP  RH WIND       PRES   REMARKS
MEMPHIS        NOT AVBL
NASHVILLE      MOSUNNY   78  71  79 S6        30.04R

......ARKANSAS.......

CITY           SKY/WX    TMP DP  RH WIND       PRES   REMARKS
FAYETTEVILLE   SUNNY     77  74  90 S3        30.00R
FT SMITH       SUNNY     80  72  76 E3        29.96R
LITTLE ROCK    PTSUNNY   80  74  81 SW5       29.97R

......OKLAHOMA.......

CITY           SKY/WX    TMP DP  RH WIND       PRES   REMARKS
TULSA          MOSUNNY   82  71  69 S9        29.95R
PONCA CITY     CLOUDY    81  71  71 S5G16     29.94S
MCALESTER      SUNNY     80  71  74 S5        29.97R
OKLAHOMA CITY  MOSUNNY   78  72  81 S5        29.97R

......IOWA............

CITY           SKY/WX    TMP DP  RH WIND       PRES   REMARKS
DES MOINES     NOT AVBL
QUAD CITIES    SUNNY     83  76  79 S7        29.85S HX  91

......ILLINOIS........

CITY           SKY/WX    TMP DP  RH WIND       PRES   REMARKS
QUINCY         SUNNY     82  76  81 S8        29.91R
CHICAGO        PTSUNNY   75  71  87 S15       29.92R



USA.gov is the U.S. government's official web portal to all federal, state and local government web resources and services.